Tracking 29932 objects as of 4-Dec-2024
HD Live streaming from Space Station
objects crossing your sky now

STARLINK-31242

Track STARLINK-31242 now!
10-day predictions
STARLINK-31242 is classified as:


NORAD ID: 58864
Int'l Code: 2024-019M
Perigee: 494.9 km
Apogee: 495.5 km
Inclination: 43.0 °
Period: 94.4 minutes
Semi major axis: 6866 km
RCS: Unknown
Launch date: January 29, 2024
Source: United States (US)
Launch site: AIR FORCE EASTERN TEST RANGE (AFETR)
Your satellite tracking list
Your tracking list is empty




NASA's NSSDC Master Catalog

Two Line Element Set (TLE):
1 58864U 24019M   24338.36285732  .00013430  00000-0  52234-3 0  9993
2 58864  43.0024 331.2117 0000458 257.3936 102.6864 15.25907774 48563
Source of the keplerian elements: AFSPC